Time,TemperatureF,DewpointF,PressureIn,WindDirection,WindDirectionDegrees,WindSpeedMPH,WindSpeedGustMPH,Humidity,HourlyPrecipIn,Conditions,Clouds,dailyrainin,SoftwareType,DateUTC
2013-01-08 00:00:00,28.8,-1.3,29.56,North,0,0.0,0.0,27,0.00,,,0.00,WUHU216HW,2013-01-08 05:00:00,
2013-01-08 00:01:00,28.8,-1.3,29.56,North,0,0.0,0.0,27,0.00,,,0.00,WUHU216HW,2013-01-08 05:01:00,
2013-01-08 00:03:00,28.8,-3.9,29.56,North,0,0.0,0.0,24,0.00,,,0.00,WUHU216HW,2013-01-08 05:03:00,
2013-01-08 00:08:00,28.8,-1.3,29.56,North,0,0.0,0.0,27,0.00,,,0.00,WUHU216HW,2013-01-08 05:08:00,
2013-01-08 00:13:00,28.6,-2.3,29.56,North,0,0.0,0.0,26,0.00,,,0.00,WUHU216HW,2013-01-08 05:13:00,
2013-01-08 00:18:00,28.6,-2.3,29.56,North,0,0.0,0.0,26,0.00,,,0.00,WUHU216HW,2013-01-08 05:18:00,
2013-01-08 00:23:00,28.4,-4.1,29.56,North,0,0.0,0.0,24,0.00,,,0.00,WUHU216HW,2013-01-08 05:23:00,
2013-01-08 00:28:00,28.4,0.1,29.56,North,0,0.0,0.0,29,0.00,,,0.00,WUHU216HW,2013-01-08 05:28:00,
2013-01-08 00:33:00,28.3,-2.6,29.56,North,0,0.0,0.0,26,0.00,,,0.00,WUHU216HW,2013-01-08 05:33:00,
2013-01-08 00:38:00,28.1,-7.0,29.55,North,0,0.0,0.0,21,0.00,,,0.00,WUHU216HW,2013-01-08 05:38:00,
2013-01-08 00:43:00,28.1,-3.6,29.55,North,0,0.0,0.0,25,0.00,,,0.00,WUHU216HW,2013-01-08 05:43:00,
2013-01-08 00:48:00,28.1,-7.8,29.55,North,0,0.0,0.0,20,0.00,,,0.00,WUHU216HW,2013-01-08 05:48:00,
2013-01-08 00:53:00,27.9,-5.5,29.55,North,0,0.0,0.0,23,0.00,,,0.00,WUHU216HW,2013-01-08 05:53:00,
2013-01-08 00:58:00,28.1,-7.8,29.55,North,0,0.0,0.0,20,0.00,,,0.00,WUHU216HW,2013-01-08 05:58:00,
2013-01-08 01:03:00,28.1,-7.8,29.54,North,0,0.0,0.0,20,0.00,,,0.00,WUHU216HW,2013-01-08 06:03:00,
2013-01-08 01:08:00,27.9,-8.0,29.54,North,0,0.0,0.0,20,0.00,,,0.00,WUHU216HW,2013-01-08 06:08:00,
2013-01-08 01:13:00,27.7,-4.8,29.54,North,0,0.0,0.0,24,0.00,,,0.00,WUHU216HW,2013-01-08 06:13:00,
2013-01-08 01:18:00,27.9,-12.0,29.54,North,0,0.0,0.0,17,0.00,,,0.00,WUHU216HW,2013-01-08 06:18:00,
2013-01-08 01:23:00,27.9,-10.7,29.54,North,0,0.0,0.0,18,0.00,,,0.00,WUHU216HW,2013-01-08 06:23:00,
2013-01-08 01:28:00,28.1,-10.6,29.54,North,0,0.0,0.0,18,0.00,,,0.00,WUHU216HW,2013-01-08 06:28:00,
2013-01-08 01:33:00,28.3,-7.7,29.54,North,0,0.0,0.0,20,0.00,,,0.00,WUHU216HW,2013-01-08 06:33:00,
2013-01-08 01:38:00,28.3,-10.4,29.54,North,0,0.0,0.0,18,0.00,,,0.00,WUHU216HW,2013-01-08 06:38:00,
2013-01-08 01:43:00,28.4,-7.6,29.54,North,0,0.0,0.0,20,0.00,,,0.00,WUHU216HW,2013-01-08 06:43:00,
2013-01-08 01:48:00,28.4,-6.7,29.54,North,0,0.0,0.0,21,0.00,,,0.00,WUHU216HW,2013-01-08 06:48:00,
2013-01-08 01:53:00,28.4,-5.8,29.55,North,0,0.0,0.0,22,0.00,,,0.00,WUHU216HW,2013-01-08 06:53:00,
2013-01-08 01:58:00,28.4,-5.8,29.55,North,0,0.0,0.0,22,0.00,,,0.00,WUHU216HW,2013-01-08 06:58:00,
2013-01-08 02:04:00,28.4,-6.7,29.55,North,0,0.0,0.0,21,0.00,,,0.00,WUHU216HW,2013-01-08 07:04:00,
2013-01-08 02:09:00,28.1,-4.5,29.55,North,0,0.0,0.0,24,0.00,,,0.00,WUHU216HW,2013-01-08 07:09:00,
2013-01-08 02:14:00,28.1,-7.0,29.56,North,0,0.0,0.0,21,0.00,,,0.00,WUHU216HW,2013-01-08 07:14:00,
2013-01-08 02:19:00,28.1,-7.8,29.56,North,0,0.0,0.0,20,0.00,,,0.00,WUHU216HW,2013-01-08 07:19:00,
2013-01-08 02:24:00,28.1,-7.0,29.55,North,0,0.0,0.0,21,0.00,,,0.00,WUHU216HW,2013-01-08 07:24:00,
2013-01-08 02:29:00,28.1,-7.8,29.55,North,0,0.0,0.0,20,0.00,,,0.00,WUHU216HW,2013-01-08 07:29:00,
2013-01-08 02:34:00,27.9,-8.0,29.55,North,0,0.0,0.0,20,0.00,,,0.00,WUHU216HW,2013-01-08 07:34:00,
2013-01-08 02:39:00,27.9,-13.5,29.55,North,0,0.0,0.0,16,0.00,,,0.00,WUHU216HW,2013-01-08 07:39:00,
2013-01-08 02:45:00,28.1,-12.0,29.55,North,0,0.0,0.0,17,0.00,,,0.00,WUHU216HW,2013-01-08 07:45:00,
2013-01-08 02:50:00,27.9,-10.7,29.55,North,0,0.0,0.0,18,0.00,,,0.00,WUHU216HW,2013-01-08 07:50:00,
2013-01-08 02:55:00,27.9,-8.0,29.55,North,0,0.0,0.0,20,0.00,,,0.00,WUHU216HW,2013-01-08 07:55:00,
2013-01-08 03:00:00,27.7,-8.1,29.55,North,0,0.0,0.0,20,0.00,,,0.00,WUHU216HW,2013-01-08 08:00:00,
2013-01-08 03:05:00,27.7,-13.6,29.55,North,0,0.0,0.0,16,0.00,,,0.00,WUHU216HW,2013-01-08 08:05:00,
2013-01-08 03:10:00,27.7,-10.9,29.55,North,0,0.0,0.0,18,0.00,,,0.00,WUHU216HW,2013-01-08 08:10:00,
2013-01-08 03:15:00,27.7,-12.2,29.55,North,0,0.0,0.0,17,0.00,,,0.00,WUHU216HW,2013-01-08 08:15:00,
2013-01-08 03:20:00,27.7,-10.9,29.55,North,0,0.0,0.0,18,0.00,,,0.00,WUHU216HW,2013-01-08 08:20:00,
2013-01-08 03:25:00,27.7,-12.2,29.55,North,0,0.0,0.0,17,0.00,,,0.00,WUHU216HW,2013-01-08 08:25:00,
2013-01-08 03:30:00,27.7,-14.9,29.55,North,0,0.0,0.0,15,0.00,,,0.00,WUHU216HW,2013-01-08 08:30:00,
2013-01-08 03:36:00,27.7,-12.2,29.55,North,0,0.0,0.0,17,0.00,,,0.00,WUHU216HW,2013-01-08 08:36:00,
2013-01-08 03:41:00,27.5,-13.8,29.55,North,0,0.0,0.0,16,0.00,,,0.00,WUHU216HW,2013-01-08 08:41:00,
2013-01-08 03:46:00,27.5,-15.1,29.56,North,0,0.0,0.0,15,0.00,,,0.00,WUHU216HW,2013-01-08 08:46:00,
2013-01-08 03:51:00,27.5,-15.1,29.55,North,0,0.0,0.0,15,0.00,,,0.00,WUHU216HW,2013-01-08 08:51:00,
2013-01-08 03:56:00,27.5,-19.3,29.55,North,0,0.0,0.0,12,0.00,,,0.00,WUHU216HW,2013-01-08 08:56:00,
2013-01-08 04:01:00,27.7,-16.4,29.55,North,0,0.0,0.0,14,0.00,,,0.00,WUHU216HW,2013-01-08 09:01:00,
2013-01-08 04:06:00,27.7,-19.1,29.55,North,0,0.0,0.0,12,0.00,,,0.00,WUHU216HW,2013-01-08 09:06:00,
2013-01-08 04:12:00,27.7,-19.1,29.55,North,0,0.0,0.0,12,0.00,,,0.00,WUHU216HW,2013-01-08 09:12:00,
2013-01-08 04:17:00,27.7,-14.9,29.55,North,0,0.0,0.0,15,0.00,,,0.00,WUHU216HW,2013-01-08 09:17:00,
2013-01-08 04:22:00,27.7,-19.1,29.55,North,0,0.0,0.0,12,0.00,,,0.00,WUHU216HW,2013-01-08 09:22:00,
2013-01-08 04:27:00,27.7,-20.4,29.55,North,0,0.0,0.0,11,0.00,,,0.00,WUHU216HW,2013-01-08 09:27:00,
2013-01-08 04:32:00,27.9,-18.9,29.55,North,0,0.0,0.0,12,0.00,,,0.00,WUHU216HW,2013-01-08 09:32:00,
2013-01-08 04:37:00,27.9,-18.9,29.54,North,0,0.0,0.0,12,0.00,,,0.00,WUHU216HW,2013-01-08 09:37:00,
2013-01-08 04:42:00,27.9,-18.9,29.54,North,0,0.0,0.0,12,0.00,,,0.00,WUHU216HW,2013-01-08 09:42:00,
2013-01-08 04:47:00,28.1,-16.0,29.54,North,0,0.0,0.0,14,0.00,,,0.00,WUHU216HW,2013-01-08 09:47:00,
2013-01-08 04:52:00,28.1,-16.0,29.54,North,0,0.0,0.0,14,0.00,,,0.00,WUHU216HW,2013-01-08 09:52:00,
2013-01-08 04:57:00,28.1,-16.0,29.54,North,0,0.0,0.0,14,0.00,,,0.00,WUHU216HW,2013-01-08 09:57:00,
2013-01-08 05:02:00,28.1,-16.0,29.54,North,0,0.0,0.0,14,0.00,,,0.00,WUHU216HW,2013-01-08 10:02:00,
2013-01-08 05:07:00,28.1,-14.7,29.54,North,0,0.0,0.0,15,0.00,,,0.00,WUHU216HW,2013-01-08 10:07:00,
2013-01-08 05:12:00,28.1,-14.7,29.54,North,0,0.0,0.0,15,0.00,,,0.00,WUHU216HW,2013-01-08 10:12:00,
2013-01-08 05:17:00,28.1,-14.7,29.55,North,0,0.0,0.0,15,0.00,,,0.00,WUHU216HW,2013-01-08 10:17:00,
2013-01-08 05:22:00,27.7,-12.2,29.55,North,0,0.0,0.0,17,0.00,,,0.00,WUHU216HW,2013-01-08 10:22:00,
2013-01-08 05:27:00,27.4,-7.5,29.54,North,0,0.0,0.0,21,0.00,,,0.00,WUHU216HW,2013-01-08 10:27:00,
2013-01-08 05:32:00,26.8,-5.6,29.55,North,0,0.0,0.0,24,0.00,,,0.00,WUHU216HW,2013-01-08 10:32:00,
2013-01-08 05:37:00,26.5,-6.6,29.55,North,0,0.0,0.0,23,0.00,,,0.00,WUHU216HW,2013-01-08 10:37:00,
2013-01-08 05:42:00,26.1,-6.1,29.56,North,0,0.0,0.0,24,0.00,,,0.00,WUHU216HW,2013-01-08 10:42:00,
2013-01-08 05:47:00,26.1,-12.2,29.56,North,0,0.0,0.0,18,0.00,,,0.00,WUHU216HW,2013-01-08 10:47:00,
2013-01-08 05:52:00,26.1,-23.2,29.56,North,0,0.0,0.0,10,0.00,,,0.00,WUHU216HW,2013-01-08 10:52:00,
2013-01-08 05:57:00,26.3,-22.9,29.56,North,0,0.0,0.0,9,0.00,,,0.00,WUHU216HW,2013-01-08 10:57:00,
2013-01-08 06:02:00,26.3,-17.5,29.56,North,0,0.0,0.0,14,0.00,,,0.00,WUHU216HW,2013-01-08 11:02:00,
2013-01-08 06:08:00,25.9,-16.5,29.57,North,0,0.0,0.0,15,0.00,,,0.00,WUHU216HW,2013-01-08 11:08:00,
2013-01-08 06:13:00,25.4,-10.2,29.57,North,0,0.0,0.0,20,0.00,,,0.00,WUHU216HW,2013-01-08 11:13:00,
2013-01-08 06:18:00,24.8,-8.9,29.57,North,0,0.0,0.0,22,0.00,,,0.00,WUHU216HW,2013-01-08 11:18:00,
2013-01-08 06:23:00,24.3,-9.3,29.58,North,0,0.0,0.0,22,0.00,,,0.00,WUHU216HW,2013-01-08 11:23:00,
2013-01-08 06:28:00,24.1,-8.6,29.58,North,0,0.0,0.0,23,0.00,,,0.00,WUHU216HW,2013-01-08 11:28:00,
2013-01-08 06:33:00,24.1,-9.5,29.58,North,0,0.0,0.0,22,0.00,,,0.00,WUHU216HW,2013-01-08 11:33:00,
2013-01-08 06:38:00,23.8,-9.0,29.58,North,0,0.0,0.0,23,0.00,,,0.00,WUHU216HW,2013-01-08 11:38:00,
2013-01-08 06:43:00,23.6,-11.6,29.58,North,0,0.0,0.0,20,0.00,,,0.00,WUHU216HW,2013-01-08 11:43:00,
2013-01-08 06:48:00,23.8,-25.0,29.58,North,0,0.0,0.0,1,0.00,,,0.00,WUHU216HW,2013-01-08 11:48:00,
2013-01-08 06:53:00,24.5,-24.4,29.58,North,0,0.0,0.0,1,0.00,,,0.00,WUHU216HW,2013-01-08 11:53:00,
2013-01-08 06:59:00,24.8,-24.1,29.58,North,0,0.0,0.0,1,0.00,,,0.00,WUHU216HW,2013-01-08 11:59:00,
2013-01-08 07:04:00,25.2,-23.8,29.59,North,0,0.0,0.0,1,0.00,,,0.00,WUHU216HW,2013-01-08 12:04:00,
2013-01-08 07:09:00,25.6,-23.6,29.59,North,0,0.0,0.0,1,0.00,,,0.00,WUHU216HW,2013-01-08 12:09:00,
2013-01-08 07:14:00,25.6,-23.6,29.59,North,0,0.0,0.0,1,0.00,,,0.00,WUHU216HW,2013-01-08 12:14:00,
2013-01-08 07:19:00,25.7,-23.4,29.59,North,0,0.0,0.0,1,0.00,,,0.00,WUHU216HW,2013-01-08 12:19:00,
2013-01-08 07:24:00,25.9,-23.2,29.59,North,0,0.0,0.0,1,0.00,,,0.00,WUHU216HW,2013-01-08 12:24:00,
2013-01-08 07:29:00,25.9,-23.2,29.59,North,0,0.0,0.0,1,0.00,,,0.00,WUHU216HW,2013-01-08 12:29:00,
2013-01-08 07:34:00,25.7,-23.4,29.59,North,0,0.0,0.0,1,0.00,,,0.00,WUHU216HW,2013-01-08 12:34:00,
2013-01-08 07:39:00,25.6,-23.6,29.59,North,0,0.0,0.0,1,0.00,,,0.00,WUHU216HW,2013-01-08 12:39:00,
2013-01-08 07:44:00,25.4,-23.7,29.59,North,0,0.0,0.0,1,0.00,,,0.00,WUHU216HW,2013-01-08 12:44:00,
2013-01-08 07:49:00,25.2,-23.8,29.59,North,0,0.0,0.0,1,0.00,,,0.00,WUHU216HW,2013-01-08 12:49:00,
2013-01-08 07:54:00,25.2,-23.8,29.59,North,0,0.0,0.0,1,0.00,,,0.00,WUHU216HW,2013-01-08 12:54:00,
2013-01-08 07:59:00,25.2,-23.8,29.59,North,0,0.0,0.0,1,0.00,,,0.00,WUHU216HW,2013-01-08 12:59:00,
2013-01-08 08:04:00,25.2,-23.8,29.60,North,0,0.0,0.0,1,0.00,,,0.00,WUHU216HW,2013-01-08 13:04:00,
2013-01-08 08:10:00,25.0,-23.9,29.60,North,0,0.0,0.0,1,0.00,,,0.00,WUHU216HW,2013-01-08 13:10:00,
2013-01-08 08:15:00,25.2,-23.8,29.60,North,0,0.0,0.0,1,0.00,,,0.00,WUHU216HW,2013-01-08 13:15:00,
2013-01-08 08:20:00,25.2,-23.8,29.60,North,0,0.0,0.0,1,0.00,,,0.00,WUHU216HW,2013-01-08 13:20:00,
2013-01-08 08:25:00,25.4,-23.7,29.60,North,0,0.0,0.0,1,0.00,,,0.00,WUHU216HW,2013-01-08 13:25:00,
2013-01-08 08:30:00,25.4,-23.7,29.60,North,0,0.0,0.0,1,0.00,,,0.00,WUHU216HW,2013-01-08 13:30:00,
2013-01-08 08:35:00,25.6,-23.6,29.60,North,0,0.0,0.0,1,0.00,,,0.00,WUHU216HW,2013-01-08 13:35:00,
2013-01-08 08:40:00,25.6,-23.6,29.60,North,0,0.0,0.0,1,0.00,,,0.00,WUHU216HW,2013-01-08 13:40:00,
2013-01-08 08:45:00,25.9,-23.2,29.60,North,0,0.0,0.0,1,0.00,,,0.00,WUHU216HW,2013-01-08 13:45:00,
2013-01-08 08:50:00,26.3,-22.9,29.60,North,0,0.0,0.0,1,0.00,,,0.00,WUHU216HW,2013-01-08 13:50:00,
2013-01-08 08:55:00,27.0,-22.4,29.60,North,0,0.0,0.0,1,0.00,,,0.00,WUHU216HW,2013-01-08 13:55:00,
2013-01-08 09:00:00,27.7,-21.8,29.61,North,0,0.0,0.0,1,0.00,,,0.00,WUHU216HW,2013-01-08 14:00:00,
2013-01-08 09:05:00,28.4,-21.2,29.61,North,0,0.0,0.0,4,0.00,,,0.00,WUHU216HW,2013-01-08 14:05:00,
2013-01-08 09:10:00,29.2,-19.2,29.61,North,0,0.0,0.0,11,0.00,,,0.00,WUHU216HW,2013-01-08 14:10:00,
2013-01-08 09:15:00,29.9,-5.6,29.62,North,0,0.0,0.0,21,0.00,,,0.00,WUHU216HW,2013-01-08 14:15:00,
2013-01-08 09:20:00,30.4,2.7,29.61,North,0,0.0,0.0,30,0.00,,,0.00,WUHU216HW,2013-01-08 14:20:00,
2013-01-08 09:25:00,30.6,7.3,29.62,North,0,0.0,0.0,37,0.00,,,0.00,WUHU216HW,2013-01-08 14:25:00,
2013-01-08 09:30:00,30.8,8.0,29.62,North,0,0.0,0.0,38,0.00,,,0.00,WUHU216HW,2013-01-08 14:30:00,
2013-01-08 09:35:00,31.5,11.0,29.62,North,0,0.0,0.0,42,0.00,,,0.00,WUHU216HW,2013-01-08 14:35:00,
2013-01-08 09:40:00,32.0,14.5,29.62,North,0,0.0,0.0,48,0.00,,,0.00,WUHU216HW,2013-01-08 14:40:00,
2013-01-08 09:45:00,32.6,14.9,29.62,North,0,0.0,0.0,48,0.00,,,0.00,WUHU216HW,2013-01-08 14:45:00,
2013-01-08 09:50:00,33.5,18.6,29.62,North,0,0.0,0.0,54,0.00,,,0.00,WUHU216HW,2013-01-08 14:50:00,
2013-01-08 09:56:00,34.0,19.4,29.62,North,0,0.0,0.0,55,0.00,,,0.00,WUHU216HW,2013-01-08 14:56:00,
2013-01-08 10:00:00,34.7,20.6,29.62,North,0,0.0,0.0,56,0.00,,,0.00,WUHU216HW,2013-01-08 15:00:00,
2013-01-08 10:05:00,35.6,21.5,29.62,North,0,0.0,0.0,56,0.00,,,0.00,WUHU216HW,2013-01-08 15:05:00,
2013-01-08 10:11:00,36.9,24.4,29.62,North,0,0.0,0.0,60,0.00,,,0.00,WUHU216HW,2013-01-08 15:11:00,
2013-01-08 10:16:00,36.7,24.2,29.61,North,0,0.0,0.0,60,0.00,,,0.00,WUHU216HW,2013-01-08 15:16:00,
2013-01-08 10:21:00,36.5,24.0,29.61,North,0,0.0,0.0,60,0.00,,,0.00,WUHU216HW,2013-01-08 15:21:00,
2013-01-08 10:26:00,36.4,23.9,29.61,North,0,0.0,0.0,60,0.00,,,0.00,WUHU216HW,2013-01-08 15:26:00,
2013-01-08 10:31:00,37.4,24.8,29.62,North,0,0.0,0.0,60,0.00,,,0.00,WUHU216HW,2013-01-08 15:31:00,
2013-01-08 10:36:00,38.7,25.6,29.62,North,0,0.0,0.0,59,0.00,,,0.00,WUHU216HW,2013-01-08 15:36:00,
2013-01-08 10:41:00,38.7,26.4,29.62,North,0,0.0,0.0,61,0.00,,,0.00,WUHU216HW,2013-01-08 15:41:00,
2013-01-08 10:46:00,37.8,25.6,29.63,North,0,0.0,0.0,61,0.00,,,0.00,WUHU216HW,2013-01-08 15:46:00,
2013-01-08 10:51:00,38.3,26.0,29.63,North,0,0.0,0.0,61,0.00,,,0.00,WUHU216HW,2013-01-08 15:51:00,
2013-01-08 10:56:00,38.0,26.1,29.63,North,0,0.0,0.0,62,0.00,,,0.00,WUHU216HW,2013-01-08 15:56:00,
2013-01-08 11:01:00,38.5,26.2,29.62,North,0,0.0,0.0,61,0.00,,,0.00,WUHU216HW,2013-01-08 16:01:00,
2013-01-08 11:06:00,39.8,27.0,29.62,North,0,0.0,0.0,60,0.00,,,0.00,WUHU216HW,2013-01-08 16:06:00,
2013-01-08 11:11:00,39.2,26.8,29.61,North,0,0.0,0.0,61,0.00,,,0.00,WUHU216HW,2013-01-08 16:11:00,
2013-01-08 11:16:00,39.6,27.2,29.61,North,0,0.0,0.0,61,0.00,,,0.00,WUHU216HW,2013-01-08 16:16:00,
2013-01-08 11:21:00,39.2,26.8,29.61,North,0,0.0,0.0,61,0.00,,,0.00,WUHU216HW,2013-01-08 16:21:00,
2013-01-08 11:26:00,39.2,26.8,29.60,North,0,0.0,0.0,61,0.00,,,0.00,WUHU216HW,2013-01-08 16:26:00,
2013-01-08 11:31:00,38.9,26.6,29.60,North,0,0.0,0.0,61,0.00,,,0.00,WUHU216HW,2013-01-08 16:31:00,
2013-01-08 11:36:00,38.9,26.6,29.61,North,0,0.0,0.0,61,0.00,,,0.00,WUHU216HW,2013-01-08 16:36:00,
2013-01-08 11:41:00,39.4,27.0,29.61,North,0,0.0,0.0,61,0.00,,,0.00,WUHU216HW,2013-01-08 16:41:00,
2013-01-08 11:46:00,38.9,26.6,29.61,North,0,0.0,0.0,61,0.00,,,0.00,WUHU216HW,2013-01-08 16:46:00,
2013-01-08 11:51:00,39.1,26.6,29.61,North,0,0.0,0.0,61,0.00,,,0.00,WUHU216HW,2013-01-08 16:51:00,
2013-01-08 11:56:00,39.6,27.2,29.60,North,0,0.0,0.0,61,0.00,,,0.00,WUHU216HW,2013-01-08 16:56:00,
2013-01-08 12:01:00,40.0,27.2,29.60,North,0,0.0,0.0,60,0.00,,,0.00,WUHU216HW,2013-01-08 17:01:00,
2013-01-08 12:06:00,40.0,27.2,29.60,North,0,0.0,0.0,60,0.00,,,0.00,WUHU216HW,2013-01-08 17:06:00,
2013-01-08 12:11:00,40.3,27.5,29.60,North,0,0.0,0.0,60,0.00,,,0.00,WUHU216HW,2013-01-08 17:11:00,
2013-01-08 12:16:00,40.7,27.9,29.60,North,0,0.0,0.0,60,0.00,,,0.00,WUHU216HW,2013-01-08 17:16:00,
2013-01-08 12:21:00,41.4,28.6,29.60,North,0,0.0,0.0,60,0.00,,,0.00,WUHU216HW,2013-01-08 17:21:00,
2013-01-08 12:26:00,41.9,29.1,29.59,North,0,0.0,0.0,60,0.00,,,0.00,WUHU216HW,2013-01-08 17:26:00,
2013-01-08 12:32:00,41.4,29.0,29.59,North,0,0.0,0.0,61,0.00,,,0.00,WUHU216HW,2013-01-08 17:32:00,
2013-01-08 12:37:00,40.9,28.4,29.59,North,0,0.0,0.0,61,0.00,,,0.00,WUHU216HW,2013-01-08 17:37:00,
2013-01-08 12:42:00,41.2,28.5,29.59,North,0,0.0,0.0,60,0.00,,,0.00,WUHU216HW,2013-01-08 17:42:00,
2013-01-08 12:47:00,43.2,30.2,29.58,North,0,0.0,0.0,60,0.00,,,0.00,WUHU216HW,2013-01-08 17:47:00,
2013-01-08 12:52:00,44.3,30.4,29.59,North,0,0.0,0.0,58,0.00,,,0.00,WUHU216HW,2013-01-08 17:52:00,
2013-01-08 12:57:00,44.6,30.8,29.58,North,0,0.0,0.0,58,0.00,,,0.00,WUHU216HW,2013-01-08 17:57:00,
2013-01-08 13:02:00,44.5,29.7,29.58,North,0,0.0,0.0,56,0.00,,,0.00,WUHU216HW,2013-01-08 18:02:00,
2013-01-08 13:07:00,45.4,31.0,29.58,North,0,0.0,0.0,57,0.00,,,0.00,WUHU216HW,2013-01-08 18:07:00,
2013-01-08 13:12:00,45.5,30.7,29.58,North,0,0.0,0.0,56,0.00,,,0.00,WUHU216HW,2013-01-08 18:12:00,
2013-01-08 13:17:00,45.5,31.1,29.58,North,0,0.0,0.0,57,0.00,,,0.00,WUHU216HW,2013-01-08 18:17:00,
2013-01-08 13:22:00,45.7,30.9,29.58,North,0,0.0,0.0,56,0.00,,,0.00,WUHU216HW,2013-01-08 18:22:00,
2013-01-08 13:27:00,46.3,31.3,29.58,North,0,0.0,0.0,56,0.00,,,0.00,WUHU216HW,2013-01-08 18:27:00,
2013-01-08 13:32:00,47.3,31.0,29.57,North,0,0.0,0.0,53,0.00,,,0.00,WUHU216HW,2013-01-08 18:32:00,
2013-01-08 13:37:00,48.1,31.2,29.57,North,0,0.0,0.0,52,0.00,,,0.00,WUHU216HW,2013-01-08 18:37:00,
2013-01-08 13:42:00,47.5,31.1,29.57,North,0,0.0,0.0,53,0.00,,,0.00,WUHU216HW,2013-01-08 18:42:00,
2013-01-08 13:47:00,47.7,30.9,29.57,North,0,0.0,0.0,52,0.00,,,0.00,WUHU216HW,2013-01-08 18:47:00,
2013-01-08 13:52:00,47.0,30.7,29.56,North,0,0.0,0.0,53,0.00,,,0.00,WUHU216HW,2013-01-08 18:52:00,
2013-01-08 13:57:00,47.0,31.2,29.56,North,0,0.0,0.0,54,0.00,,,0.00,WUHU216HW,2013-01-08 18:57:00,
2013-01-08 14:02:00,46.3,30.4,29.56,North,0,0.0,0.0,54,0.00,,,0.00,WUHU216HW,2013-01-08 19:02:00,
2013-01-08 14:07:00,46.8,31.4,29.56,North,0,0.0,0.0,55,0.00,,,0.00,WUHU216HW,2013-01-08 19:07:00,
2013-01-08 14:12:00,47.3,31.4,29.56,North,0,0.0,0.0,54,0.00,,,0.00,WUHU216HW,2013-01-08 19:12:00,
2013-01-08 14:17:00,48.2,31.9,29.56,North,0,0.0,0.0,53,0.00,,,0.00,WUHU216HW,2013-01-08 19:17:00,
2013-01-08 14:22:00,48.6,32.1,29.56,North,0,0.0,0.0,53,0.00,,,0.00,WUHU216HW,2013-01-08 19:22:00,
2013-01-08 14:27:00,48.1,31.7,29.56,North,0,0.0,0.0,53,0.00,,,0.00,WUHU216HW,2013-01-08 19:27:00,
2013-01-08 14:32:00,48.6,31.2,29.55,North,0,0.0,0.0,51,0.00,,,0.00,WUHU216HW,2013-01-08 19:32:00,
2013-01-08 14:37:00,48.6,32.7,29.55,North,0,0.0,0.0,54,0.00,,,0.00,WUHU216HW,2013-01-08 19:37:00,
2013-01-08 14:42:00,48.1,31.2,29.55,North,0,0.0,0.0,52,0.00,,,0.00,WUHU216HW,2013-01-08 19:42:00,
2013-01-08 14:47:00,47.9,31.5,29.55,North,0,0.0,0.0,53,0.00,,,0.00,WUHU216HW,2013-01-08 19:47:00,
2013-01-08 14:52:00,47.9,31.5,29.55,North,0,0.0,0.0,53,0.00,,,0.00,WUHU216HW,2013-01-08 19:52:00,
2013-01-08 14:57:00,47.7,31.8,29.56,North,0,0.0,0.0,54,0.00,,,0.00,WUHU216HW,2013-01-08 19:57:00,
2013-01-08 15:02:00,48.6,32.1,29.56,North,0,0.0,0.0,53,0.00,,,0.00,WUHU216HW,2013-01-08 20:02:00,
2013-01-08 15:07:00,47.9,31.5,29.56,North,0,0.0,0.0,53,0.00,,,0.00,WUHU216HW,2013-01-08 20:07:00,
2013-01-08 15:12:00,47.9,31.5,29.56,North,0,0.0,0.0,53,0.00,,,0.00,WUHU216HW,2013-01-08 20:12:00,
2013-01-08 15:17:00,48.2,32.3,29.57,North,0,0.0,0.0,54,0.00,,,0.00,WUHU216HW,2013-01-08 20:17:00,
2013-01-08 15:23:00,49.1,32.2,29.57,North,0,0.0,0.0,52,0.00,,,0.00,WUHU216HW,2013-01-08 20:23:00,
2013-01-08 15:28:00,48.6,31.7,29.57,North,0,0.0,0.0,52,0.00,,,0.00,WUHU216HW,2013-01-08 20:28:00,
2013-01-08 15:33:00,48.2,31.3,29.57,North,0,0.0,0.0,52,0.00,,,0.00,WUHU216HW,2013-01-08 20:33:00,
2013-01-08 15:38:00,48.4,32.5,29.57,North,0,0.0,0.0,54,0.00,,,0.00,WUHU216HW,2013-01-08 20:38:00,
2013-01-08 15:43:00,48.2,31.9,29.57,North,0,0.0,0.0,53,0.00,,,0.00,WUHU216HW,2013-01-08 20:43:00,
2013-01-08 15:48:00,47.5,31.6,29.58,North,0,0.0,0.0,54,0.00,,,0.00,WUHU216HW,2013-01-08 20:48:00,
2013-01-08 15:53:00,46.4,31.5,29.57,North,0,0.0,0.0,56,0.00,,,0.00,WUHU216HW,2013-01-08 20:53:00,
2013-01-08 15:58:00,45.7,31.3,29.57,North,0,0.0,0.0,57,0.00,,,0.00,WUHU216HW,2013-01-08 20:58:00,
2013-01-08 16:03:00,45.4,31.0,29.57,North,0,0.0,0.0,57,0.00,,,0.00,WUHU216HW,2013-01-08 21:03:00,
2013-01-08 16:08:00,45.7,31.3,29.58,North,0,0.0,0.0,57,0.00,,,0.00,WUHU216HW,2013-01-08 21:08:00,
2013-01-08 16:13:00,45.9,31.5,29.58,North,0,0.0,0.0,57,0.00,,,0.00,WUHU216HW,2013-01-08 21:13:00,
2013-01-08 16:18:00,45.5,31.1,29.58,North,0,0.0,0.0,57,0.00,,,0.00,WUHU216HW,2013-01-08 21:18:00,
2013-01-08 16:23:00,44.6,30.8,29.58,North,0,0.0,0.0,58,0.00,,,0.00,WUHU216HW,2013-01-08 21:23:00,
2013-01-08 16:28:00,43.9,30.5,29.58,North,0,0.0,0.0,59,0.00,,,0.00,WUHU216HW,2013-01-08 21:28:00,
2013-01-08 16:33:00,43.2,29.8,29.58,North,0,0.0,0.0,59,0.00,,,0.00,WUHU216HW,2013-01-08 21:33:00,
2013-01-08 16:38:00,42.8,29.9,29.58,North,0,0.0,0.0,60,0.00,,,0.00,WUHU216HW,2013-01-08 21:38:00,
2013-01-08 16:43:00,42.7,29.7,29.58,North,0,0.0,0.0,60,0.00,,,0.00,WUHU216HW,2013-01-08 21:43:00,
2013-01-08 16:48:00,42.3,29.4,29.57,North,0,0.0,0.0,60,0.00,,,0.00,WUHU216HW,2013-01-08 21:48:00,
2013-01-08 16:53:00,42.1,29.3,29.57,North,0,0.0,0.0,60,0.00,,,0.00,WUHU216HW,2013-01-08 21:53:00,
2013-01-08 16:58:00,41.8,28.9,29.58,North,0,0.0,0.0,60,0.00,,,0.00,WUHU216HW,2013-01-08 21:58:00,
2013-01-08 17:03:00,41.4,28.6,29.57,North,0,0.0,0.0,60,0.00,,,0.00,WUHU216HW,2013-01-08 22:03:00,
2013-01-08 17:08:00,41.0,28.3,29.57,North,0,0.0,0.0,60,0.00,,,0.00,WUHU216HW,2013-01-08 22:08:00,
2013-01-08 17:13:00,40.9,27.6,29.57,North,0,0.0,0.0,59,0.00,,,0.00,WUHU216HW,2013-01-08 22:13:00,
2013-01-08 17:18:00,40.5,27.3,29.57,North,0,0.0,0.0,59,0.00,,,0.00,WUHU216HW,2013-01-08 22:18:00,
2013-01-08 17:23:00,40.1,26.5,29.56,North,0,0.0,0.0,58,0.00,,,0.00,WUHU216HW,2013-01-08 22:23:00,
2013-01-08 17:28:00,40.0,26.3,29.56,North,0,0.0,0.0,58,0.00,,,0.00,WUHU216HW,2013-01-08 22:28:00,
2013-01-08 17:33:00,39.6,25.5,29.56,North,0,0.0,0.0,57,0.00,,,0.00,WUHU216HW,2013-01-08 22:33:00,
2013-01-08 17:38:00,39.2,24.8,29.56,North,0,0.0,0.0,56,0.00,,,0.00,WUHU216HW,2013-01-08 22:38:00,
2013-01-08 17:43:00,39.1,24.6,29.55,North,0,0.0,0.0,56,0.00,,,0.00,WUHU216HW,2013-01-08 22:43:00,
2013-01-08 17:48:00,38.9,23.6,29.55,North,0,0.0,0.0,54,0.00,,,0.00,WUHU216HW,2013-01-08 22:48:00,
2013-01-08 17:53:00,38.7,22.5,29.55,North,0,0.0,0.0,52,0.00,,,0.00,WUHU216HW,2013-01-08 22:53:00,
2013-01-08 17:58:00,38.5,22.8,29.55,North,0,0.0,0.0,53,0.00,,,0.00,WUHU216HW,2013-01-08 22:58:00,
2013-01-08 18:03:00,38.5,22.0,29.56,North,0,0.0,0.0,51,0.00,,,0.00,WUHU216HW,2013-01-08 23:03:00,
2013-01-08 18:08:00,38.3,21.3,29.56,North,0,0.0,0.0,50,0.00,,,0.00,WUHU216HW,2013-01-08 23:08:00,
2013-01-08 18:13:00,38.2,20.2,29.56,North,0,0.0,0.0,48,0.00,,,0.00,WUHU216HW,2013-01-08 23:13:00,
2013-01-08 18:18:00,38.0,19.4,29.56,North,0,0.0,0.0,47,0.00,,,0.00,WUHU216HW,2013-01-08 23:18:00,
2013-01-08 18:23:00,37.8,18.3,29.56,North,0,0.0,0.0,45,0.00,,,0.00,WUHU216HW,2013-01-08 23:23:00,
2013-01-08 18:28:00,37.8,17.7,29.56,North,0,0.0,0.0,44,0.00,,,0.00,WUHU216HW,2013-01-08 23:28:00,
2013-01-08 18:33:00,37.8,18.3,29.56,North,0,0.0,0.0,45,0.00,,,0.00,WUHU216HW,2013-01-08 23:33:00,
2013-01-08 18:38:00,37.8,17.7,29.56,North,0,0.0,0.0,44,0.00,,,0.00,WUHU216HW,2013-01-08 23:38:00,
2013-01-08 18:43:00,37.8,18.3,29.56,North,0,0.0,0.0,45,0.00,,,0.00,WUHU216HW,2013-01-08 23:43:00,
2013-01-08 18:48:00,37.8,17.7,29.56,North,0,0.0,0.0,44,0.00,,,0.00,WUHU216HW,2013-01-08 23:48:00,
2013-01-08 18:53:00,37.8,17.7,29.56,North,0,0.0,0.0,44,0.00,,,0.00,WUHU216HW,2013-01-08 23:53:00,
2013-01-08 19:31:00,37.6,19.1,29.56,North,0,0.0,0.0,47,0.00,,,0.00,WUHU216HW,2013-01-09 00:31:00,
2013-01-08 19:36:00,37.8,19.3,29.56,North,0,0.0,0.0,47,0.00,,,0.00,WUHU216HW,2013-01-09 00:36:00,
2013-01-08 19:41:00,37.8,20.4,29.56,North,0,0.0,0.0,49,0.00,,,0.00,WUHU216HW,2013-01-09 00:41:00,
2013-01-08 19:46:00,38.2,21.6,29.56,North,0,0.0,0.0,51,0.00,,,0.00,WUHU216HW,2013-01-09 00:46:00,
2013-01-08 19:51:00,38.3,22.2,29.56,North,0,0.0,0.0,52,0.00,,,0.00,WUHU216HW,2013-01-09 00:51:00,
2013-01-08 19:56:00,38.3,22.6,29.55,North,0,0.0,0.0,53,0.00,,,0.00,WUHU216HW,2013-01-09 00:56:00,
2013-01-08 20:01:00,38.5,23.2,29.56,North,0,0.0,0.0,54,0.00,,,0.00,WUHU216HW,2013-01-09 01:01:00,
2013-01-08 20:06:00,38.5,23.2,29.56,North,0,0.0,0.0,54,0.00,,,0.00,WUHU216HW,2013-01-09 01:06:00,
2013-01-08 20:11:00,38.7,24.2,29.56,North,0,0.0,0.0,56,0.00,,,0.00,WUHU216HW,2013-01-09 01:11:00,
2013-01-08 20:16:00,38.9,24.4,29.56,North,0,0.0,0.0,56,0.00,,,0.00,WUHU216HW,2013-01-09 01:16:00,
2013-01-08 20:21:00,38.9,24.4,29.57,North,0,0.0,0.0,56,0.00,,,0.00,WUHU216HW,2013-01-09 01:21:00,
2013-01-08 20:26:00,38.9,24.8,29.57,North,0,0.0,0.0,57,0.00,,,0.00,WUHU216HW,2013-01-09 01:26:00,
2013-01-08 20:31:00,38.7,24.2,29.57,North,0,0.0,0.0,56,0.00,,,0.00,WUHU216HW,2013-01-09 01:31:00,
2013-01-08 20:36:00,38.7,24.2,29.57,North,0,0.0,0.0,56,0.00,,,0.00,WUHU216HW,2013-01-09 01:36:00,
2013-01-08 20:41:00,38.5,24.5,29.56,North,0,0.0,0.0,57,0.00,,,0.00,WUHU216HW,2013-01-09 01:41:00,
2013-01-08 20:46:00,38.2,23.8,29.56,North,0,0.0,0.0,56,0.00,,,0.00,WUHU216HW,2013-01-09 01:46:00,
2013-01-08 20:51:00,38.0,23.1,29.55,North,0,0.0,0.0,55,0.00,,,0.00,WUHU216HW,2013-01-09 01:51:00,
2013-01-08 20:56:00,37.8,22.6,29.55,North,0,0.0,0.0,54,0.00,,,0.00,WUHU216HW,2013-01-09 01:56:00,
2013-01-08 21:01:00,37.8,22.6,29.55,North,0,0.0,0.0,54,0.00,,,0.00,WUHU216HW,2013-01-09 02:01:00,
2013-01-08 21:06:00,37.8,22.1,29.55,North,0,0.0,0.0,53,0.00,,,0.00,WUHU216HW,2013-01-09 02:06:00,
2013-01-08 21:11:00,37.6,22.0,29.55,North,0,0.0,0.0,53,0.00,,,0.00,WUHU216HW,2013-01-09 02:11:00,
2013-01-08 21:16:00,37.3,22.1,29.55,North,0,0.0,0.0,54,0.00,,,0.00,WUHU216HW,2013-01-09 02:16:00,
2013-01-08 21:21:00,36.9,21.8,29.55,North,0,0.0,0.0,54,0.00,,,0.00,WUHU216HW,2013-01-09 02:21:00,
2013-01-08 21:26:00,36.4,20.9,29.55,North,0,0.0,0.0,53,0.00,,,0.00,WUHU216HW,2013-01-09 02:26:00,
2013-01-08 21:31:00,36.2,19.8,29.55,North,0,0.0,0.0,51,0.00,,,0.00,WUHU216HW,2013-01-09 02:31:00,
2013-01-08 21:36:00,36.4,17.5,29.54,North,0,0.0,0.0,46,0.00,,,0.00,WUHU216HW,2013-01-09 02:36:00,
2013-01-08 21:42:00,36.4,17.5,29.54,North,0,0.0,0.0,46,0.00,,,0.00,WUHU216HW,2013-01-09 02:42:00,
2013-01-08 21:47:00,36.4,17.5,29.54,North,0,0.0,0.0,46,0.00,,,0.00,WUHU216HW,2013-01-09 02:47:00,
2013-01-08 21:52:00,36.0,16.7,29.54,North,0,0.0,0.0,45,0.00,,,0.00,WUHU216HW,2013-01-09 02:52:00,
2013-01-08 21:57:00,35.8,17.5,29.54,North,0,0.0,0.0,47,0.00,,,0.00,WUHU216HW,2013-01-09 02:57:00,
2013-01-08 22:02:00,35.6,15.2,29.54,North,0,0.0,0.0,43,0.00,,,0.00,WUHU216HW,2013-01-09 03:02:00,
2013-01-08 22:07:00,35.6,14.8,29.54,North,0,0.0,0.0,42,0.00,,,0.00,WUHU216HW,2013-01-09 03:07:00,
2013-01-08 22:12:00,35.5,15.6,29.54,North,0,0.0,0.0,44,0.00,,,0.00,WUHU216HW,2013-01-09 03:12:00,
2013-01-08 22:17:00,35.5,14.6,29.54,North,0,0.0,0.0,42,0.00,,,0.00,WUHU216HW,2013-01-09 03:17:00,
2013-01-08 22:22:00,35.5,10.3,29.54,North,0,0.0,0.0,35,0.00,,,0.00,WUHU216HW,2013-01-09 03:22:00,
2013-01-08 22:27:00,35.5,12.3,29.54,North,0,0.0,0.0,38,0.00,,,0.00,WUHU216HW,2013-01-09 03:27:00,
2013-01-08 22:32:00,35.3,8.8,29.54,North,0,0.0,0.0,33,0.00,,,0.00,WUHU216HW,2013-01-09 03:32:00,
2013-01-08 22:37:00,35.5,10.3,29.54,North,0,0.0,0.0,35,0.00,,,0.00,WUHU216HW,2013-01-09 03:37:00,
2013-01-08 22:42:00,35.5,7.8,29.54,North,0,0.0,0.0,31,0.00,,,0.00,WUHU216HW,2013-01-09 03:42:00,
2013-01-08 22:47:00,35.5,7.8,29.54,North,0,0.0,0.0,31,0.00,,,0.00,WUHU216HW,2013-01-09 03:47:00,
2013-01-08 22:52:00,35.5,8.4,29.53,North,0,0.0,0.0,32,0.00,,,0.00,WUHU216HW,2013-01-09 03:52:00,
2013-01-08 22:57:00,35.5,9.0,29.54,North,0,0.0,0.0,33,0.00,,,0.00,WUHU216HW,2013-01-09 03:57:00,
2013-01-08 23:02:00,35.6,7.8,29.54,North,0,0.0,0.0,31,0.00,,,0.00,WUHU216HW,2013-01-09 04:02:00,
2013-01-08 23:07:00,35.5,10.3,29.54,North,0,0.0,0.0,35,0.00,,,0.00,WUHU216HW,2013-01-09 04:07:00,
2013-01-08 23:12:00,35.3,10.8,29.54,North,0,0.0,0.0,36,0.00,,,0.00,WUHU216HW,2013-01-09 04:12:00,
2013-01-08 23:17:00,35.3,6.0,29.54,North,0,0.0,0.0,29,0.00,,,0.00,WUHU216HW,2013-01-09 04:17:00,
2013-01-08 23:22:00,35.5,6.2,29.54,North,0,0.0,0.0,29,0.00,,,0.00,WUHU216HW,2013-01-09 04:22:00,
2013-01-08 23:27:00,35.6,7.8,29.54,North,0,0.0,0.0,31,0.00,,,0.00,WUHU216HW,2013-01-09 04:27:00,
2013-01-08 23:32:00,35.5,9.0,29.54,North,0,0.0,0.0,33,0.00,,,0.00,WUHU216HW,2013-01-09 04:32:00,
2013-01-08 23:37:00,35.5,7.8,29.55,North,0,0.0,0.0,31,0.00,,,0.00,WUHU216HW,2013-01-09 04:37:00,
2013-01-08 23:43:00,35.5,6.2,29.54,North,0,0.0,0.0,29,0.00,,,0.00,WUHU216HW,2013-01-09 04:43:00,
2013-01-08 23:48:00,35.3,7.6,29.54,North,0,0.0,0.0,31,0.00,,,0.00,WUHU216HW,2013-01-09 04:48:00,
2013-01-08 23:53:00,35.3,5.2,29.55,North,0,0.0,0.0,28,0.00,,,0.00,WUHU216HW,2013-01-09 04:53:00,
2013-01-08 23:58:00,35.3,6.9,29.54,North,0,0.0,0.0,30,0.00,,,0.00,WUHU216HW,2013-01-09 04:58:00,